Shawnee, OK

10:57 AM CST on December 06, 2016 (GMT -0600)
Shawnee Municipal

Weather History for KSNL - March, 2013

Change the Weather History Date:

Thursday, March 28, 2013

  Actual Average (KOKC) Record (KOKC)
Temperature  
Mean Temperature 64 °F 56 °F  
Max Temperature 77 °F 67 °F 88 °F (1928)
Min Temperature 51 °F 44 °F 16 °F (1931)
Degree Days  
Heating Degree Days 1 10  
Month to date heating degree days 381  
Since 1 July heating degree days 3131  
Cooling Degree Days 0 1  
Month to date cooling degree days 7  
Year to date cooling degree days 8  
Growing Degree Days 14 (Base 50)    
Moisture  
Dew Point 49 °F    
Average Humidity 61    
Maximum Humidity 77    
Minimum Humidity 47    
Precipitation  
Precipitation 0.00 in 0.11 in 2.84 in (1988)
Month to date precipitation 2.75  
Year to date precipitation 5.72  
Snow  
Snow 0.00 in 0.10 in 1.70 in (1970)
Month to date snowfall 0.9  
Since 1 July snowfall 7.6  
Snow Depth -    
Sea Level Pressure  
Sea Level Pressure 30.12 in    
Wind  
Wind Speed 12 mph (South)    
Max Wind Speed 18 mph    
Max Gust Speed 25 mph    
Visibility 10 miles    
Events      
T = Trace of Precipitation, MM = Missing Value Source: NWS Daily Summary

Daily Weather History Graph

Daily Weather History Graph

Search for Another Location

Airport or City:

Trip Planner

Search our weather history database for the weather conditions in past years. The results will help you decide how hot, cold, wet, or windy it might be!

Date:

Astronomy

Mar. 28, 2013 Rise Set
Actual Time 7:19 AM CDT 7:46 PM CDT
Civil Twilight 6:54 AM CDT 8:11 PM CDT
Nautical Twilight 6:24 AM CDT 8:41 PM CDT
Astronomical Twilight 5:53 AM CDT 9:12 PM CDT
Moon 9:34 PM CDT (3/28) 7:52 AM CDT (3/28)
Length of Visible Light 13h 17m
Length of Day
12h 26m
Full, 98% of the Moon is Illuminated
Mar 28
Full
Apr 2
Last Quarter
Apr 10
New
Apr 18
First Quarter
Apr 25
Full

Hourly Weather History & Observations

Time (CDT) Temp. Dew Point Humidity Pressure Visibility Wind Dir Wind Speed Gust Speed Precip Events Conditions
12:15 AM 57.2 °F 41.0 °F 55% 30.13 in 10.0 mi SSE 10.4 mph 16.1 mph N/A   Clear
12:35 AM 57.2 °F 41.0 °F 55% 30.13 in 10.0 mi SSE 11.5 mph - N/A   Clear
12:55 AM 57.2 °F 41.0 °F 55% 30.13 in 10.0 mi SSE 12.7 mph - N/A   Clear
1:15 AM 55.4 °F 41.0 °F 58% 30.13 in 10.0 mi SSE 12.7 mph 18.4 mph N/A   Clear
1:35 AM 55.4 °F 39.2 °F 54% 30.13 in 10.0 mi SSE 11.5 mph - N/A   Clear
1:55 AM 55.4 °F 41.0 °F 58% 30.13 in 10.0 mi SSE 12.7 mph - N/A   Clear
2:15 AM 55.4 °F 41.0 °F 58% 30.13 in 10.0 mi SSE 10.4 mph 17.3 mph N/A   Clear
2:35 AM 55.4 °F 41.0 °F 58% 30.13 in 10.0 mi SSE 11.5 mph - N/A   Clear
2:55 AM 55.4 °F 41.0 °F 58% 30.13 in 10.0 mi SSE 11.5 mph - N/A   Clear
3:15 AM 53.6 °F 39.2 °F 58% 30.12 in 10.0 mi SSE 11.5 mph - N/A   Clear
3:35 AM 53.6 °F 39.2 °F 58% 30.12 in 10.0 mi SSE 11.5 mph - N/A   Clear
3:55 AM 53.6 °F 41.0 °F 62% 30.12 in 10.0 mi SSE 12.7 mph - N/A   Clear
4:15 AM 53.6 °F 41.0 °F 62% 30.12 in 10.0 mi SSE 12.7 mph - N/A   Clear
4:35 AM 51.8 °F 39.2 °F 62% 30.12 in 10.0 mi SSE 11.5 mph - N/A   Clear
4:55 AM 51.8 °F 41.0 °F 67% 30.12 in 10.0 mi SSE 12.7 mph - N/A   Clear
5:15 AM 51.8 °F 39.2 °F 62% 30.12 in 10.0 mi SSE 12.7 mph - N/A   Clear
5:35 AM 51.8 °F 39.2 °F 62% 30.12 in 10.0 mi SSE 12.7 mph - N/A   Clear
5:55 AM 51.8 °F 41.0 °F 67% 30.12 in 10.0 mi SSE 13.8 mph - N/A   Clear
6:15 AM 51.8 °F 41.0 °F 67% 30.12 in 10.0 mi SSE 10.4 mph - N/A   Clear
6:35 AM 51.8 °F 41.0 °F 67% 30.12 in 10.0 mi South 12.7 mph - N/A   Clear
6:55 AM 51.8 °F 41.0 °F 67% 30.12 in 10.0 mi SSE 12.7 mph - N/A   Clear
7:15 AM 51.8 °F 42.8 °F 71% 30.13 in 10.0 mi South 10.4 mph - N/A   Clear
7:35 AM 51.8 °F 42.8 °F 71% 30.14 in 10.0 mi South 10.4 mph - N/A   Clear
8:15 AM 51.8 °F 42.8 °F 71% 30.15 in 10.0 mi South 10.4 mph - N/A   Clear
8:35 AM 51.8 °F 44.6 °F 76% 30.16 in 10.0 mi South 11.5 mph - N/A   Clear
8:55 AM 53.6 °F 44.6 °F 72% 30.16 in 10.0 mi South 12.7 mph - N/A   Clear
9:15 AM 55.4 °F 46.4 °F 72% 30.17 in 10.0 mi South 10.4 mph - N/A   Clear
9:35 AM 55.4 °F 48.2 °F 77% 30.17 in 10.0 mi South 12.7 mph 18.4 mph N/A   Clear
9:55 AM 59.0 °F 50.0 °F 72% 30.17 in 10.0 mi South 13.8 mph 19.6 mph N/A   Clear
10:15 AM 60.8 °F 50.0 °F 68% 30.17 in 10.0 mi South 15.0 mph - N/A   Clear
11:15 AM 64.4 °F 51.8 °F 64% 30.18 in 10.0 mi South 13.8 mph - N/A   Clear
11:55 AM 66.2 °F 53.6 °F 64% 30.17 in 10.0 mi SSW 12.7 mph 17.3 mph N/A   Clear
12:15 PM 68.0 °F 53.6 °F 60% 30.16 in 10.0 mi SSE 13.8 mph - N/A   Clear
12:35 PM 71.6 °F 55.4 °F 57% 30.16 in 10.0 mi SSE 11.5 mph - N/A   Clear
12:55 PM 71.6 °F 53.6 °F 53% 30.15 in 10.0 mi South 11.5 mph 16.1 mph N/A   Clear
1:15 PM 71.6 °F 53.6 °F 53% 30.14 in 10.0 mi SSE 11.5 mph 20.7 mph N/A   Clear
1:35 PM 71.6 °F 53.6 °F 53% 30.14 in 10.0 mi SSE 12.7 mph 17.3 mph N/A   Clear
1:55 PM 73.4 °F 53.6 °F 50% 30.13 in 10.0 mi South 15.0 mph 19.6 mph N/A   Clear
2:15 PM 73.4 °F 53.6 °F 50% 30.11 in 10.0 mi SSE 16.1 mph 21.9 mph N/A   Clear
2:35 PM 77.0 °F 55.4 °F 47% 30.10 in 10.0 mi South 17.3 mph - N/A   Clear
2:55 PM 73.4 °F 53.6 °F 50% 30.10 in 10.0 mi South 17.3 mph 21.9 mph N/A   Clear
3:15 PM 73.4 °F 53.6 °F 50% 30.10 in 10.0 mi South 11.5 mph - N/A   Clear
3:35 PM 73.4 °F 53.6 °F 50% 30.09 in 10.0 mi SSE 15.0 mph 20.7 mph N/A   Scattered Clouds
3:55 PM 73.4 °F 53.6 °F 50% 30.08 in 10.0 mi SSE 12.7 mph 17.3 mph N/A   Mostly Cloudy
4:15 PM 77.0 °F 55.4 °F 47% 30.08 in 10.0 mi SSE 18.4 mph 25.3 mph N/A   Overcast
4:35 PM 73.4 °F 55.4 °F 53% 30.07 in 10.0 mi SE 13.8 mph 18.4 mph N/A   Mostly Cloudy
4:55 PM 73.4 °F 55.4 °F 53% 30.07 in 10.0 mi South 12.7 mph 24.2 mph N/A   Scattered Clouds
5:15 PM 73.4 °F 55.4 °F 53% 30.07 in 10.0 mi South 12.7 mph 19.6 mph N/A   Scattered Clouds
5:35 PM 71.6 °F 53.6 °F 53% 30.06 in 10.0 mi SSE 15.0 mph - N/A   Scattered Clouds
5:55 PM 71.6 °F 53.6 °F 53% 30.06 in 10.0 mi South 18.4 mph 24.2 mph N/A   Scattered Clouds
6:15 PM 71.6 °F 53.6 °F 53% 30.07 in 10.0 mi SSE 18.4 mph 24.2 mph N/A   Scattered Clouds
6:35 PM 71.6 °F 53.6 °F 53% 30.08 in 10.0 mi South 15.0 mph 20.7 mph N/A   Scattered Clouds
6:55 PM 71.6 °F 53.6 °F 53% 30.09 in 10.0 mi South 13.8 mph 20.7 mph N/A   Scattered Clouds
7:15 PM 71.6 °F 53.6 °F 53% 30.09 in 10.0 mi South 13.8 mph 18.4 mph N/A   Scattered Clouds
7:35 PM 71.6 °F 55.4 °F 57% 30.09 in 10.0 mi South 13.8 mph - N/A   Scattered Clouds
7:55 PM 68.0 °F 53.6 °F 60% 30.10 in 10.0 mi SSW 9.2 mph - N/A   Scattered Clouds
8:15 PM 68.0 °F 55.4 °F 64% 30.11 in 10.0 mi South 10.4 mph - N/A   Scattered Clouds
8:35 PM 68.0 °F 55.4 °F 64% 30.12 in 10.0 mi South 10.4 mph - N/A   Overcast
8:55 PM 68.0 °F 53.6 °F 60% 30.12 in 10.0 mi South 6.9 mph - N/A   Mostly Cloudy
9:15 PM 66.2 °F 53.6 °F 64% 30.12 in 10.0 mi South 8.1 mph - N/A   Mostly Cloudy
9:35 PM 68.0 °F 55.4 °F 64% 30.12 in 10.0 mi South 8.1 mph - N/A   Overcast
9:55 PM 66.2 °F 55.4 °F 68% 30.13 in 10.0 mi SSE 6.9 mph - N/A   Overcast
10:15 PM 66.2 °F 55.4 °F 68% 30.13 in 10.0 mi SSE 8.1 mph - N/A   Overcast
10:35 PM 66.2 °F 55.4 °F 68% 30.13 in 10.0 mi SSE 10.4 mph - N/A   Overcast
10:55 PM 66.2 °F 55.4 °F 68% 30.13 in 10.0 mi South 10.4 mph - N/A   Overcast
11:15 PM 66.2 °F 55.4 °F 68% 30.14 in 10.0 mi South 10.4 mph - N/A   Overcast
11:35 PM 66.2 °F 57.2 °F 73% 30.14 in 10.0 mi South 12.7 mph 18.4 mph N/A   Overcast
11:55 PM 66.2 °F 57.2 °F 73% 30.13 in 10.0 mi South 12.7 mph - N/A   Overcast